www.pogodaiklimat.ru

Погода и климат >> Архив погоды >> Алжир >> In-Salah


ПОГОДА в In-Salah

АРХИВ ПОГОДЫ в In-Salah

Время (UTC), дата Ветер
(напр.,м/с)
 
Видим.   Явления Облачность Т
(С)
Тd
(С)
f
(%)
Тe
(С)
Тes
(С)
Комфортность P
(гПа)
Po
(гПа)
Тmin
(С)
Tmax
(С)
R
(мм)
R24
(мм)
S
(см)
03 6.11 СВ 1 10 км 4/0
[Ci sp]
+14.2 -4.4 27 +15 +15 1013.4 1013.0
06 6.11 штиль 0 10 км 3/0
[Ac trans]
+12.9 -3.1 33 +13 +13 1014.5 1015.0 +12.0
09 6.11 В 8 10 км 3/0
[Ac trans]
+22.4 +0.5 23 +22 +23 комфорт 1016.0 1016.0
12 6.11 В 6 15 км 1/0
[Ac trans]
+28.6 -1.4 14 +26 +30 жарко 1014.2 1014.0
15 6.11 СВ 3 10 км ясно +30.1 -4.3 10 +27 +30 жарко 1013.1 1013.0
18 6.11 СВ 2 15 км 3/0
[Ac trans]
+25.3 -8.0 10 +22 +22 комфорт 1013.8 1014.0 +30.4
21 6.11 штиль 0 10 км 3/0
[Ac trans]
+18.5 -9.2 14 +18 +18 1015.8 1016.0
00 7.11 штиль 0 10 км 3/0
[Ac trans]
+15.4 -9.3 17 +16 +16 1015.9 1016.0
03 7.11 штиль 0 10 км 3/0
[Ac trans]
+12.7 -9.4 20 +13 +13 1015.5 1016.0
06 7.11 штиль 0 10 км 1/0
[Ac trans]
+12.6 -7.4 24 +13 +13 1016.7 1017.0 +11.1
09 7.11 В 9 10 км ясно +23.1 -3.7 16 +21 +22 комфорт 1018.1 1018.0
12 7.11 В 7 10 км ясно +29.9 -3.6 11 +27 +29 жарко 1016.9 1017.0
15 7.11 СВ 6 10 км ясно +31.2 -5.4 9 +27 +29 жарко 1015.2 1015.0
18 7.11 СВ 5 10 км ясно +25.2 -8.9 10 +21 +21 комфорт 1016.2 1016.0 +31.7
21 7.11 СВ 6 10 км ясно +21.3 -11.4 10 +20 +20 1017.4 1017.0
00 8.11 СВ 8 10 км ясно +20.7 -10.0 12 +19 +19 1017.3 1017.0
03 8.11 СВ 9 10 км ясно +20.5 -9.3 13 +19 +19 1016.7 1017.0
06 8.11 СВ 9 8000 м пыльный позёмок ясно +20.6 -8.6 13 +19 +19 1017.9 1018.0 +20.4
09 8.11 В 11 9000 м пыльный позёмок ясно +24.7 -8.2 11 +22 +22 комфорт 1019.0 1019.0
12 8.11 В 8 10 км ясно +31.8 -4.9 9 +28 +30 жарко 1016.7 1017.0
15 8.11 ЮВ 3 10 км ясно +34.2 -3.1 9 +30 +34 жарко 1014.3 1014.0
18 8.11 штиль 0 10 км ясно +27.7 +23 +23 комфорт 1014.9 1015.0 +34.4
21 8.11 СВ 4 10 км ясно +23.1 -9.1 11 +21 +21 комфорт 1015.8 1016.0
00 9.11 СВ 6 10 км ясно +22.9 -7.8 12 +21 +21 комфорт 1014.4 1014.0
03 9.11 СВ 5 10 км ясно +21.3 -7.4 14 +20 +20 1013.0 1013.0
06 9.11 С 2 10 км 3/0
[Ci sp]
+17.6 -5.5 20 +18 +18 1014.2 1014.0 +17.4
09 9.11 С 6 10 км 4/0
[Ac trans Ci sp]
+24.1 -2.8 17 +22 +24 комфорт 1016.3 1016.0
12 9.11 СВ 5 10 км 4/0
[Ac trans Ci sp]
+30.3 -5.4 9 +27 +32 жарко 1013.6 1014.0
15 9.11 В 4 10 км 4/0
[Ac trans Ci sp]
+32.4 -4.5 9 +29 +31 жарко 1012.0 1012.0
18 9.11 С 5 10 км 3/0
[Ci sp]
+28.7 +24 +24 комфорт 1013.0 1013.0 +34.2
21 9.11 СВ 7 10 км 3/0
[Ci sp]
+25.3 -8.7 10 +22 +22 комфорт 1014.6 1015.0
00 10.11 СВ 6 10 км 3/0
[Ci sp]
+23.1 -6.6 13 +21 +21 комфорт 1014.8 1015.0
03 10.11 СВ 4 10 км 3/0
[Ci sp]
+17.0 -2.1 27 +17 +17 1014.8 1015.0
06 10.11 СВ 3 10 км ясно +15.8 -6.6 21 +16 +16 1015.5 1016.0 +15.3
09 10.11 С 8 10 км 1/0
[Ci fib]
+22.1 -3.3 18 +21 +22 комфорт 1017.2 1017.0
12 10.11 СВ 8 10 км ясно +27.3 -4.5 12 +24 +26 комфорт 1015.8 1016.0
15 10.11 СВ 5 10 км 3/0
[Ci sp]
+28.7 -5.7 10 +25 +27 комфорт 1014.4 1014.0
18 10.11 СВ 5 10 км 3/0
[Ci sp]
+24.4 -7.9 11 +22 +22 комфорт 1015.6 1016.0 +34.4
21 10.11 СВ 8 10 км 3/0
[Ci sp]
+22.2 -6.4 14 +21 +21 комфорт 1017.4 1017.0
00 11.11 В 4 10 км ясно +17.9 -7.6 17 +18 +18 1017.7 1018.0
03 11.11 СВ 4 10 км ясно +15.2 -7.0 21 +14 +14 1017.7 1018.0
06 11.11 СВ 3 10 км ясно +13.6 -7.7 22 +13 +13 1017.9 1018.0 +13.0
09 11.11 В 8 10 км ясно +19.4 -8.0 15 +18 +19 1018.9 1019.0
12 11.11 В 10 10 км ясно +24.6 -7.2 12 +22 +23 комфорт 1017.5 1018.0
15 11.11 В 9 10 км ясно +26.2 -8.1 10 +23 +24 комфорт 1015.8 1016.0
18 11.11 В 4 10 км ясно +21.8 -7.0 14 +20 +20 1016.5 1017.0 +26.6
21 11.11 СВ 8 10 км ясно +18.4 -6.3 18 +18 +18 1016.9 1017.0
00 12.11 СВ 5 10 км ясно +17.2 -4.6 22 +17 +17 1016.6 1017.0
03 12.11 СВ 11 8000 м пыльный позёмок ясно +16.2 -5.1 23 +14 +14 1015.1 1015.0
06 12.11 СВ 13 5000 м пыльный позёмок 4/0
[Ac trans Ci sp]
+16.4 -4.7 23 +14 +14 1015.0 1015.0 +15.8
09 12.11 СВ 15 800 м пыльный позёмок 8/3 1380 м
[Cu med, cong Ac trans Ci sp]
+19.0 +1.7 31 +18 +18 1016.1 1016.0
12 12.11 В 13 1500 м пыльный позёмок 8/3 1380 м
[Cu med, cong Ac trans Ci sp]
+22.9 -4.0 16 +21 +21 комфорт 1014.0 1014.0
15 12.11 В 13 3000 м пыльный позёмок 8/3 1380 м
[Cu med, cong Ac trans Ci sp]
+24.8 -7.2 11 +22 +22 комфорт 1012.1 1012.0
18 12.11 СВ 8 8000 м 8/3 1500 м
[Cu med, cong Ac trans Ci sp]
+21.8 -7.0 14 +20 +20 1014.1 1014.0 +25.8
21 12.11 В 10 8000 м пыльный позёмок 8/3 1500 м
[Cu med, cong Ac trans Ci sp]
+19.6 -2.7 22 +19 +19 1014.4 1014.0
00 13.11 СВ 10 8000 м пыльный позёмок 8/3 1500 м
[Cu med, cong Ac trans Ci sp]
+18.5 -0.5 28 +17 +17 1012.8 1013.0

 

Местоположение метеостанции In-Salah (Алжир): широта 27.23 долгота 2.50 высота над уровнем моря 269 м.

В архиве по умолчанию представлена погода в In-Salah за последнюю неделю. Архивные данные за месяц целиком и за предыдущие месяцы, начиная с января 2011 года, Вы можете получить, выбрав интересующий диапазон дат из раскрывающегося списка и нажав кнопку "Ввод!".


*Определитесь, кто Вы:
робот инопланетянин человек

Внимание! Время в таблицах - всемирное. Для получения местного времени необходимо прибавить поправку, которая в In-Salah равна 1 ч.

Смотрите также архив погоды в соседних городах и на ближайших метеорологических станциях:

Погода в Arak (Алжир) (254 км)
Погода в Adrar (Алжир) (274 км)
Погода в Timimoun (Алжир) (313 км)
Погода в Abankor (Алжир) (326 км)
Погода в Moulay Lachen (Алжир) (350 км)
Погода в El-Golea (Алжир) (373 км)
Погода в In Ziza (Алжир) (418 км)
Погода в Mertouek (Алжир) (455 км)
Погода в Rhourde-Nouss (Алжир) (495 км)
Погода в Tin Fouye (Алжир) (514 км)

Пояснения к столбцам:

Ветер - указаны скорость ветра в м/с - средняя за 10 мин, порывы в срок и между сроками (в фигурных скобках) и направление, откуда дует ветер: С - северный, СВ - северо-восточный, В - восточный, ЮВ - юго-восточный, Ю - южный, ЮЗ - юго-западный, З - западный, СЗ - северо-западный.
Видимость - горизонтальная дальность видимости в метрах или километрах. При видимости от 1 до 10 км при отсутствии осадков обычно наблюдается дымка, при ухудшении видимости до 1 км и менее - туман. В сухую погоду видимость может ухудшаться дымом, пылью или мглою.
Явления - указаны атмосферные явления, наблюдавшиеся в срок или в последний час перед сроком; фигурными скобками обозначены явления, наблюдавшиеся между сроками (за 1-3 часа до срока); квадратными скобками обозначены град или гололедные отложения с указанием их диаметра в мм.
Облачность - указаны через наклонную черту общая и нижняя облачность в баллах и высота нижней границы облаков в метрах; квадратными скобками обозначены формы облаков: Ci - перистые, Cs - перисто-слоистые, Cc - перисто-кучевые, Ac - высококучевые, As - высокослоистые, Sc - слоисто-кучевые, Ns - слоисто-дождевые, Cu - кучевые, Cb - кучево-дождевые. Подробнее классификацию облаков см. в Атласе облаков (PDF).
T - Температура воздуха - температура, измеренная на высоте 2 м над землей.
Td - Температура точки росы - температура, при понижении до которой содержащийся в воздухе водяной пар достигнет насыщения.
f - Относительная влажность воздуха - влажноcть воздуха, измеренная на высоте 2 м над землей.
Te - Эффективная температура - температура, которую ощущает одетый по сезону человек в тени. Характеристика душности погоды. При расчете учитывается влияние влажности воздуха и скорости ветра на теплоощущения человека.
Tes - Эффективная температура на солнце - температура, которую ощущает человек, с поправкой на солнечный нагрев. Характеристика знойности погоды. Зависит от высоты солнца над горизонтом, облачности и скорости ветра. Ночью, в пасмурную погоду, а также при ветре 12 м/с и более поправка равна нулю.
P - Атмосферное давление - приведенное к уровню моря атмосферное давление.
Po - Атмосферное давление - измеренное на уровне метеостанции атмосферное давление.
Tmin - Минимальная температура - минимум температуры воздуха на высоте 2 м над землей.
Tmax - Максимальная температура - максимум температуры воздуха на высоте 2 м над землей.
R - Количество осадков - Количество выпавших осадков за период времени, мм. При наведении курсора мыши на число - период времени, за который выпало указанное количество осадков.
R24 - Количество осадков - Количество выпавших осадков за 24 часа, мм.
S - Снежный покров - Высота снежного покрова, см. При наведении курсора мыши на число - состояние снежного покрова и степень покрытия местности в баллах.